Time,TemperatureF,DewpointF,PressureIn,WindDirection,WindDirectionDegrees,WindSpeedMPH,WindSpeedGustMPH,Humidity,HourlyPrecipIn,Conditions,Clouds,dailyrainin,SoftwareType,DateUTC
2013-09-28 08:07:00,65.2,56.0,29.65,SSE,151,16.0,17.0,72,0.00,,CLR,0.00,VWS V14.01,2013-09-28 13:07:00,
2013-09-28 08:08:00,65.2,56.0,29.65,SSE,150,17.0,17.0,72,0.00,,CLR,0.00,VWS V14.01,2013-09-28 13:08:00,
2013-09-28 08:10:00,65.3,56.0,29.65,SE,135,16.0,19.0,72,0.00,,CLR,0.00,VWS V14.01,2013-09-28 13:10:00,
2013-09-28 08:15:00,65.6,56.3,29.65,SSE,151,16.0,22.0,72,0.00,,SCT085,0.00,VWS V14.01,2013-09-28 13:15:00,
2013-09-28 08:16:00,65.6,56.3,29.64,SSE,151,10.0,22.0,72,0.00,,SCT085,0.00,VWS V14.01,2013-09-28 13:16:00,
2013-09-28 08:21:00,66.0,56.7,29.64,SE,142,12.0,25.0,72,0.00,,SCT085,0.00,VWS V14.01,2013-09-28 13:21:00,
2013-09-28 08:26:00,66.1,56.8,29.64,SE,141,22.0,25.0,72,0.00,,SCT085,0.00,VWS V14.01,2013-09-28 13:26:00,
2013-09-28 08:30:00,66.3,56.6,29.64,SSE,156,17.0,25.0,71,0.00,,OVC038,0.00,VWS V15.00,2013-09-28 13:30:00,
2013-09-28 08:31:00,66.3,56.6,29.64,SE,141,14.0,25.0,71,0.00,,SCT085,0.00,VWS V14.01,2013-09-28 13:31:00,
2013-09-28 08:36:00,66.4,56.7,29.64,SE,144,14.0,24.0,71,0.00,,SCT085,0.00,VWS V14.01,2013-09-28 13:36:00,
2013-09-28 08:41:00,66.4,56.7,29.64,SE,140,16.0,26.0,71,0.00,,SCT085,0.00,VWS V14.01,2013-09-28 13:41:00,
2013-09-28 08:45:00,66.6,56.9,29.64,SSE,153,21.0,28.0,71,0.00,,OVC038,0.00,VWS V15.00,2013-09-28 13:45:00,
2013-09-28 08:46:00,66.6,56.9,29.64,SSE,151,18.0,27.0,71,0.00,,SCT085,0.00,VWS V14.01,2013-09-28 13:46:00,
2013-09-28 08:51:00,66.8,56.7,29.64,SSE,164,20.0,28.0,70,0.00,,SCT085,0.00,VWS V14.01,2013-09-28 13:51:00,
2013-09-28 08:56:00,66.8,56.7,29.64,SSE,158,15.0,28.0,70,0.00,,SCT085,0.00,VWS V14.01,2013-09-28 13:56:00,
2013-09-28 09:00:00,66.6,56.5,29.63,SSE,157,17.0,28.0,70,0.00,,OVC038,0.00,VWS V15.00,2013-09-28 14:00:00,
2013-09-28 09:01:00,66.6,56.5,29.63,SSE,151,21.0,28.0,70,0.00,,OVC085,0.00,VWS V14.01,2013-09-28 14:01:00,
2013-09-28 09:08:00,66.6,56.9,29.63,SE,143,21.0,23.0,71,0.00,,OVC085,0.00,VWS V14.01,2013-09-28 14:08:00,
2013-09-28 09:13:00,66.8,57.1,29.63,SSE,168,16.0,27.0,71,0.00,,OVC085,0.00,VWS V14.01,2013-09-28 14:13:00,
2013-09-28 09:15:00,65.6,56.3,29.64,SSE,158,16.0,22.0,72,0.00,,,0.00,VWS V15.00,2013-09-28 14:15:00,
2013-09-28 09:18:00,67.1,57.0,29.63,SE,146,16.0,22.0,70,0.00,,OVC085,0.00,VWS V14.01,2013-09-28 14:18:00,
2013-09-28 09:23:00,67.3,57.2,29.63,SE,146,17.0,23.0,70,0.00,,OVC085,0.00,VWS V14.01,2013-09-28 14:23:00,
2013-09-28 09:28:00,67.3,57.2,29.63,SSE,156,15.0,23.0,70,0.00,,OVC085,0.00,VWS V14.01,2013-09-28 14:28:00,
2013-09-28 09:30:00,66.3,56.6,29.64,SSE,156,17.0,25.0,71,0.00,,,0.00,VWS V15.00,2013-09-28 14:30:00,
2013-09-28 09:33:00,67.4,57.7,29.62,SSE,148,18.0,19.0,71,0.00,,OVC085,0.00,VWS V14.01,2013-09-28 14:33:00,
2013-09-28 09:38:00,67.9,57.8,29.62,SSE,156,26.0,33.0,70,0.00,,OVC085,0.00,VWS V14.01,2013-09-28 14:38:00,
2013-09-28 09:44:00,68.4,57.8,29.62,South,170,20.0,33.0,69,0.00,,OVC065,0.00,VWS V14.01,2013-09-28 14:44:00,
2013-09-28 09:45:00,66.6,56.9,29.64,SSE,153,21.0,28.0,71,0.00,,,0.00,VWS V15.00,2013-09-28 14:45:00,
2013-09-28 09:50:00,68.8,58.2,29.61,SSE,158,19.0,30.0,69,0.00,,OVC065,0.00,VWS V14.01,2013-09-28 14:50:00,
2013-09-28 09:56:00,68.8,58.2,29.61,SSE,168,18.0,30.0,69,0.00,,OVC065,0.00,VWS V14.01,2013-09-28 14:56:00,
2013-09-28 10:00:00,66.6,56.5,29.63,SSE,157,17.0,28.0,70,0.00,,,0.00,VWS V15.00,2013-09-28 15:00:00,
2013-09-28 10:01:00,68.8,58.2,29.61,SSE,167,20.0,30.0,69,0.00,,-RA,0.00,VWS V14.01,2013-09-28 15:01:00,
2013-09-28 10:06:00,68.6,58.0,29.61,South,170,23.0,30.0,69,0.00,,-RA,0.00,VWS V14.01,2013-09-28 15:06:00,
2013-09-28 10:11:00,68.3,58.5,29.61,South,173,22.0,31.0,71,0.00,,-RA,0.00,VWS V14.01,2013-09-28 15:11:00,
2013-09-28 10:15:00,67.1,57.0,29.63,SSE,149,15.0,27.0,70,0.00,,,0.00,VWS V15.00,2013-09-28 15:15:00,
2013-09-28 10:16:00,68.1,58.3,29.60,SSE,158,22.0,32.0,71,0.00,,-RA,0.00,VWS V14.01,2013-09-28 15:16:00,
2013-09-28 10:21:00,68.3,58.2,29.60,SSE,163,20.0,33.0,70,0.00,,-RA,0.00,VWS V14.01,2013-09-28 15:21:00,
2013-09-28 10:26:00,68.3,58.5,29.60,SSE,164,22.0,33.0,71,0.00,,-RA,0.00,VWS V14.01,2013-09-28 15:26:00,
2013-09-28 10:30:00,67.4,57.3,29.62,SSE,156,14.0,23.0,70,0.00,,,0.00,VWS V15.00,2013-09-28 15:30:00,
2013-09-28 10:31:00,67.9,58.5,29.59,SSE,161,19.0,33.0,72,0.00,,-RA,0.00,VWS V14.01,2013-09-28 15:31:00,
2013-09-28 10:36:00,67.6,59.0,29.59,SSE,164,20.0,26.0,74,0.00,,-RA,0.00,VWS V14.01,2013-09-28 15:36:00,
2013-09-28 10:41:00,67.4,58.8,29.59,SSE,165,18.0,29.0,74,0.00,,-RA,0.00,VWS V14.01,2013-09-28 15:41:00,
2013-09-28 10:45:00,68.6,57.2,29.61,SSE,161,20.0,33.0,67,0.00,,,0.00,VWS V15.00,2013-09-28 15:45:00,
2013-09-28 10:46:00,66.9,59.1,29.59,SSE,160,24.0,29.0,76,0.00,,-RA,0.00,VWS V14.01,2013-09-28 15:46:00,
2013-09-28 10:51:00,66.0,60.0,29.59,South,171,17.0,26.0,81,0.01,,-RA,0.01,VWS V14.01,2013-09-28 15:51:00,
2013-09-28 10:56:00,65.2,60.2,29.59,SSE,162,21.0,29.0,84,0.02,,-RA,0.02,VWS V14.01,2013-09-28 15:56:00,
2013-09-28 11:00:00,68.6,58.0,29.61,South,169,23.0,30.0,69,0.00,,,0.00,VWS V15.00,2013-09-28 16:00:00,
2013-09-28 11:01:00,64.7,60.4,29.60,South,172,16.0,17.0,86,0.04,,-RA,0.04,VWS V14.01,2013-09-28 16:01:00,
2013-09-28 11:06:00,64.2,60.9,29.60,South,175,17.0,26.0,89,0.09,,-RA,0.09,VWS V14.01,2013-09-28 16:06:00,
2013-09-28 11:11:00,63.9,60.9,29.60,South,180,16.0,26.0,90,0.09,,-RA,0.09,VWS V14.01,2013-09-28 16:11:00,
2013-09-28 11:15:00,68.1,58.3,29.60,SSE,155,22.0,32.0,71,0.00,,,0.00,VWS V15.00,2013-09-28 16:15:00,
2013-09-28 11:17:00,63.9,61.2,29.60,SSE,159,20.0,20.0,91,0.09,,-RA,0.09,VWS V14.01,2013-09-28 16:17:00,
2013-09-28 11:22:00,63.7,61.0,29.60,SSE,163,16.0,24.0,91,0.09,,-RA,0.09,VWS V14.01,2013-09-28 16:22:00,
2013-09-28 11:27:00,63.9,61.5,29.60,SSE,158,23.0,30.0,92,0.09,,-RA,0.09,VWS V14.01,2013-09-28 16:27:00,
2013-09-28 11:30:00,67.9,58.5,29.59,SSE,161,19.0,33.0,72,0.00,,,0.00,VWS V15.00,2013-09-28 16:30:00,
2013-09-28 11:32:00,63.9,61.5,29.59,SSE,164,21.0,23.0,92,0.09,,-RA,0.09,VWS V14.01,2013-09-28 16:32:00,
2013-09-28 11:37:00,63.9,61.5,29.59,South,173,25.0,25.0,92,0.09,,-RA,0.09,VWS V14.01,2013-09-28 16:37:00,
2013-09-28 11:42:00,63.9,61.5,29.59,South,170,25.0,27.0,92,0.09,,-RA,0.09,VWS V14.01,2013-09-28 16:42:00,
2013-09-28 11:45:00,66.9,59.1,29.59,SSE,160,24.0,29.0,76,0.00,,,0.00,VWS V15.00,2013-09-28 16:45:00,
2013-09-28 11:47:00,63.9,61.5,29.59,South,170,23.0,28.0,92,0.09,,-RA,0.09,VWS V14.01,2013-09-28 16:47:00,
2013-09-28 11:52:00,63.9,61.5,29.59,SSE,166,24.0,29.0,92,0.09,,-RA,0.09,VWS V14.01,2013-09-28 16:52:00,
2013-09-28 11:57:00,63.9,61.8,29.59,South,174,21.0,29.0,93,0.09,,-RA,0.09,VWS V14.01,2013-09-28 16:57:00,
2013-09-28 12:00:00,64.7,60.4,29.60,SSE,167,17.0,29.0,86,0.04,,,0.04,VWS V15.00,2013-09-28 17:00:00,
2013-09-28 12:02:00,63.9,61.8,29.58,South,175,22.0,22.0,93,0.04,,-RA,0.09,VWS V14.01,2013-09-28 17:02:00,
2013-09-28 12:07:00,63.9,62.1,29.58,SSE,157,17.0,25.0,94,0.04,,-RA,0.09,VWS V14.01,2013-09-28 17:07:00,
2013-09-28 12:12:00,63.9,62.1,29.58,SSE,168,21.0,27.0,94,0.04,,-RA,0.09,VWS V14.01,2013-09-28 17:12:00,
2013-09-28 12:15:00,63.9,61.2,29.60,SSE,156,16.0,26.0,91,0.09,,,0.09,VWS V15.00,2013-09-28 17:15:00,
2013-09-28 12:17:00,63.9,62.1,29.58,SSE,160,15.0,21.0,94,0.00,,-RA,0.09,VWS V14.01,2013-09-28 17:17:00,
2013-09-28 12:22:00,63.9,62.1,29.58,SSE,163,17.0,28.0,94,0.00,,-RA,0.09,VWS V14.01,2013-09-28 17:22:00,
2013-09-28 12:27:00,63.9,62.1,29.58,South,172,19.0,28.0,94,0.00,,-RA,0.09,VWS V14.01,2013-09-28 17:27:00,
2013-09-28 12:30:00,63.9,61.5,29.59,SSE,165,22.0,30.0,92,0.09,,,0.09,VWS V15.00,2013-09-28 17:30:00,
2013-09-28 12:32:00,63.2,60.8,29.61,WSW,252,27.0,36.0,92,0.01,,-RA,0.10,VWS V14.01,2013-09-28 17:32:00,
2013-09-28 12:37:00,59.8,55.9,29.61,SW,236,22.0,36.0,87,0.01,,-RA,0.10,VWS V14.01,2013-09-28 17:37:00,
2013-09-28 12:43:00,57.3,53.8,29.61,WSW,248,23.0,36.0,88,0.01,,-RA,0.10,VWS V14.01,2013-09-28 17:43:00,
2013-09-28 12:45:00,63.9,61.5,29.59,SSE,161,24.0,27.0,92,0.09,,,0.09,VWS V15.00,2013-09-28 17:45:00,
2013-09-28 12:48:00,56.2,53.0,29.65,West,260,12.0,20.0,89,0.01,,-RA,0.10,VWS V14.01,2013-09-28 17:48:00,
2013-09-28 12:53:00,55.4,52.8,29.65,WSW,247,9.0,24.0,91,0.02,,-RA,0.11,VWS V14.01,2013-09-28 17:53:00,
2013-09-28 12:58:00,55.0,52.7,29.65,West,261,17.0,24.0,92,0.03,,-RA,0.12,VWS V14.01,2013-09-28 17:58:00,
2013-09-28 13:00:00,63.9,61.8,29.58,South,169,18.0,29.0,93,0.09,,,0.09,VWS V15.00,2013-09-28 18:00:00,
2013-09-28 13:03:00,54.7,52.4,29.67,WSW,241,19.0,20.0,92,0.04,,-RA,0.13,VWS V14.01,2013-09-28 18:03:00,
2013-09-28 13:08:00,54.2,52.2,29.67,West,276,14.0,24.0,93,0.06,,-RA,0.14,VWS V14.01,2013-09-28 18:08:00,
2013-09-28 13:13:00,54.1,52.4,29.67,WSW,248,13.0,24.0,94,0.07,,-RA,0.15,VWS V14.01,2013-09-28 18:13:00,
2013-09-28 13:15:00,63.9,62.1,29.58,South,173,19.0,28.0,94,0.04,,,0.09,VWS V15.00,2013-09-28 18:15:00,
2013-09-28 13:18:00,53.9,52.2,29.66,WSW,246,12.0,24.0,94,0.08,,-RA,0.17,VWS V14.01,2013-09-28 18:18:00,
2013-09-28 13:23:00,53.9,52.5,29.66,West,268,10.0,24.0,95,0.09,,-RA,0.18,VWS V14.01,2013-09-28 18:23:00,
2013-09-28 13:28:00,53.9,52.5,29.66,WSW,253,10.0,24.0,95,0.09,,-RA,0.18,VWS V14.01,2013-09-28 18:28:00,
2013-09-28 13:30:00,63.5,61.8,29.61,WSW,257,22.0,30.0,94,0.01,,,0.10,VWS V15.00,2013-09-28 18:30:00,
2013-09-28 13:33:00,53.9,52.5,29.67,WSW,246,5.0,14.0,95,0.09,,-RA,0.19,VWS V14.01,2013-09-28 18:33:00,
2013-09-28 13:38:00,53.9,52.5,29.67,WSW,239,12.0,18.0,95,0.10,,-RA,0.20,VWS V14.01,2013-09-28 18:38:00,
2013-09-28 13:43:00,53.8,52.4,29.67,WSW,256,11.0,20.0,95,0.11,,-RA,0.21,VWS V14.01,2013-09-28 18:43:00,
2013-09-28 13:45:00,56.3,53.1,29.65,West,269,20.0,36.0,89,0.01,,,0.10,VWS V15.00,2013-09-28 18:45:00,
2013-09-28 13:49:00,53.9,52.5,29.69,WSW,244,7.0,12.0,95,0.11,,-RA,0.21,VWS V14.01,2013-09-28 18:49:00,
2013-09-28 13:54:00,53.9,52.5,29.69,WSW,242,11.0,17.0,95,0.11,,-RA,0.21,VWS V14.01,2013-09-28 18:54:00,
2013-09-28 13:59:00,53.9,52.8,29.69,WSW,248,9.0,17.0,96,0.12,,-RA,0.22,VWS V14.01,2013-09-28 18:59:00,
2013-09-28 14:00:00,54.7,52.4,29.67,WSW,237,13.0,24.0,92,0.04,,,0.13,VWS V15.00,2013-09-28 19:00:00,
2013-09-28 14:04:00,53.9,52.5,29.70,WSW,242,14.0,16.0,95,0.10,,-RA,0.23,VWS V14.01,2013-09-28 19:04:00,
2013-09-28 14:09:00,53.9,52.5,29.70,SW,236,7.0,18.0,95,0.10,,-RA,0.23,VWS V14.01,2013-09-28 19:09:00,
2013-09-28 14:14:00,53.9,52.5,29.70,WNW,285,10.0,18.0,95,0.11,,-RA,0.24,VWS V14.01,2013-09-28 19:14:00,
2013-09-28 14:15:00,54.1,52.4,29.66,West,270,14.0,24.0,94,0.08,,,0.17,VWS V15.00,2013-09-28 19:15:00,
2013-09-28 14:19:00,54.1,52.7,29.70,WSW,258,12.0,17.0,95,0.09,,-RA,0.25,VWS V14.01,2013-09-28 19:19:00,
2013-09-28 14:24:00,53.9,52.5,29.70,WSW,255,9.0,17.0,95,0.09,,-RA,0.25,VWS V14.01,2013-09-28 19:24:00,
2013-09-28 14:29:00,53.9,52.5,29.70,WSW,258,4.0,17.0,95,0.09,,-RA,0.25,VWS V14.01,2013-09-28 19:29:00,
2013-09-28 14:30:00,53.9,52.5,29.67,WSW,251,12.0,24.0,95,0.10,,,0.19,VWS V15.00,2013-09-28 19:30:00,
2013-09-28 14:34:00,54.1,52.7,29.72,WSW,239,4.0,15.0,95,0.07,,-RA,0.25,VWS V14.01,2013-09-28 19:34:00,
2013-09-28 14:39:00,54.2,52.8,29.72,WSW,241,8.0,15.0,95,0.07,,-RA,0.25,VWS V14.01,2013-09-28 19:39:00,
2013-09-28 14:44:00,54.4,53.0,29.72,SW,235,6.0,15.0,95,0.07,,-RA,0.25,VWS V14.01,2013-09-28 19:44:00,
2013-09-28 14:45:00,53.9,52.5,29.69,WSW,243,6.0,20.0,95,0.11,,,0.21,VWS V15.00,2013-09-28 19:45:00,
2013-09-28 14:49:00,54.4,53.0,29.72,WSW,240,10.0,15.0,95,0.04,,-RA,0.25,VWS V14.01,2013-09-28 19:49:00,
2013-09-28 14:54:00,54.5,53.1,29.72,SW,234,3.0,15.0,95,0.04,,OVC085,0.25,VWS V14.01,2013-09-28 19:54:00,
2013-09-28 15:00:00,54.5,53.1,29.72,WSW,243,9.0,15.0,95,0.04,,OVC085,0.25,VWS V14.01,2013-09-28 20:00:00,
2013-09-28 15:05:00,54.5,53.1,29.72,WSW,241,11.0,15.0,95,0.03,,OVC085,0.25,VWS V14.01,2013-09-28 20:05:00,
2013-09-28 15:10:00,54.7,53.3,29.72,WSW,240,7.0,15.0,95,0.03,,OVC085,0.25,VWS V14.01,2013-09-28 20:10:00,
2013-09-28 15:15:00,54.7,53.3,29.72,WSW,239,3.0,15.0,95,0.03,,OVC085,0.25,VWS V14.01,2013-09-28 20:15:00,
2013-09-28 15:20:00,55.0,53.6,29.74,WSW,239,6.0,10.0,95,0.00,,OVC085,0.25,VWS V14.01,2013-09-28 20:20:00,
2013-09-28 15:25:00,55.4,54.0,29.74,WSW,241,8.0,12.0,95,0.00,,OVC085,0.25,VWS V14.01,2013-09-28 20:25:00,
2013-09-28 15:30:00,56.0,54.6,29.74,SW,224,2.0,16.0,95,0.00,,OVC085,0.25,VWS V14.01,2013-09-28 20:30:00,
2013-09-28 15:35:00,56.0,54.3,29.74,WSW,244,6.0,17.0,94,0.00,,OVC085,0.25,VWS V14.01,2013-09-28 20:35:00,
2013-09-28 15:40:00,56.0,54.3,29.74,WSW,241,7.0,17.0,94,0.00,,OVC035,0.25,VWS V14.01,2013-09-28 20:40:00,
2013-09-28 15:45:00,56.0,54.0,29.74,WSW,250,11.0,17.0,93,0.00,,OVC035,0.25,VWS V14.01,2013-09-28 20:45:00,
2013-09-28 15:50:00,56.0,54.0,29.74,WSW,238,9.0,13.0,93,0.00,,OVC046,0.25,VWS V14.01,2013-09-28 20:50:00,
2013-09-28 15:55:00,56.5,54.5,29.74,SW,229,5.0,14.0,93,0.00,,OVC046,0.25,VWS V14.01,2013-09-28 20:55:00,
2013-09-28 16:00:00,56.7,54.7,29.74,WSW,239,4.0,14.0,93,0.00,,OVC046,0.25,VWS V14.01,2013-09-28 21:00:00,
2013-09-28 16:05:00,57.0,54.7,29.75,SW,227,8.0,14.0,92,0.00,,OVC046,0.25,VWS V14.01,2013-09-28 21:05:00,
2013-09-28 16:10:00,57.0,54.4,29.75,SW,236,13.0,15.0,91,0.00,,OVC046,0.25,VWS V14.01,2013-09-28 21:10:00,
2013-09-28 16:15:00,54.8,53.4,29.74,WSW,239,7.0,15.0,95,0.03,,,0.25,VWS V15.00,2013-09-28 21:15:00,
2013-09-28 16:17:00,57.2,54.6,29.75,SW,224,9.0,9.0,91,0.00,,OVC046,0.25,VWS V14.01,2013-09-28 21:17:00,
2013-09-28 16:22:00,57.2,54.0,29.75,SW,234,13.0,18.0,89,0.00,,OVC046,0.25,VWS V14.01,2013-09-28 21:22:00,
2013-09-28 16:27:00,57.2,53.7,29.75,SW,234,9.0,18.0,88,0.00,,OVC046,0.25,VWS V14.01,2013-09-28 21:27:00,
2013-09-28 16:30:00,56.0,54.6,29.74,SW,220,6.0,16.0,95,0.00,,,0.25,VWS V15.00,2013-09-28 21:30:00,
2013-09-28 16:32:00,56.9,52.8,29.75,SW,227,10.0,11.0,86,0.00,,OVC046,0.25,VWS V14.01,2013-09-28 21:32:00,
2013-09-28 16:37:00,56.9,53.1,29.75,West,277,14.0,18.0,87,0.00,,OVC046,0.25,VWS V14.01,2013-09-28 21:37:00,
2013-09-28 16:42:00,56.7,52.2,29.75,SW,227,11.0,23.0,85,0.00,,OVC041,0.25,VWS V14.01,2013-09-28 21:42:00,
2013-09-28 16:45:00,56.0,54.0,29.74,SW,235,9.0,17.0,93,0.00,,,0.25,VWS V15.00,2013-09-28 21:45:00,
2013-09-28 16:47:00,56.6,52.2,29.77,WSW,240,9.0,15.0,85,0.00,,OVC041,0.25,VWS V14.01,2013-09-28 21:47:00,
2013-09-28 16:52:00,56.7,52.2,29.77,WSW,244,10.0,18.0,85,0.00,,OVC050,0.25,VWS V14.01,2013-09-28 21:52:00,
2013-09-28 16:57:00,56.7,51.6,29.77,WSW,243,15.0,21.0,83,0.00,,OVC050,0.25,VWS V14.01,2013-09-28 21:57:00,
2013-09-28 17:00:00,56.9,54.6,29.75,WSW,239,6.0,14.0,92,0.00,,,0.25,VWS V15.00,2013-09-28 22:00:00,
2013-09-28 17:02:00,56.7,51.3,29.77,WSW,253,7.0,15.0,82,0.00,,OVC050,0.25,VWS V14.01,2013-09-28 22:02:00,
2013-09-28 17:07:00,57.2,52.1,29.77,SW,232,6.0,16.0,83,0.00,,OVC050,0.25,VWS V14.01,2013-09-28 22:07:00,
2013-09-28 17:12:00,57.2,51.4,29.77,WSW,238,11.0,19.0,81,0.00,,OVC050,0.25,VWS V14.01,2013-09-28 22:12:00,
2013-09-28 17:15:00,57.2,54.6,29.75,SW,224,3.0,15.0,91,0.00,,,0.25,VWS V15.00,2013-09-28 22:15:00,
2013-09-28 17:17:00,57.0,51.2,29.79,SW,232,17.0,17.0,81,0.00,,OVC050,0.25,VWS V14.01,2013-09-28 22:17:00,
2013-09-28 17:22:00,56.7,50.6,29.79,SW,235,12.0,18.0,80,0.00,,OVC050,0.25,VWS V14.01,2013-09-28 22:22:00,
2013-09-28 17:27:00,56.6,50.5,29.79,WSW,246,10.0,19.0,80,0.00,,OVC050,0.25,VWS V14.01,2013-09-28 22:27:00,
2013-09-28 17:30:00,57.0,52.9,29.75,SW,229,11.0,19.0,86,0.00,,,0.25,VWS V15.00,2013-09-28 22:30:00,
2013-09-28 17:32:00,56.6,50.5,29.79,SW,236,6.0,11.0,80,0.00,,OVC050,0.25,VWS V14.01,2013-09-28 22:32:00,
2013-09-28 17:37:00,56.5,50.4,29.79,WSW,242,12.0,17.0,80,0.00,,OVC050,0.25,VWS V14.01,2013-09-28 22:37:00,
2013-09-28 17:42:00,56.5,50.8,29.79,WSW,242,12.0,18.0,81,0.00,,OVC060,0.25,VWS V14.01,2013-09-28 22:42:00,
2013-09-28 17:45:00,56.6,52.2,29.77,WSW,241,11.0,23.0,85,0.00,,,0.25,VWS V15.00,2013-09-28 22:45:00,
2013-09-28 17:47:00,56.3,50.2,29.80,SW,232,11.0,11.0,80,0.00,,OVC060,0.25,VWS V14.01,2013-09-28 22:47:00,
2013-09-28 17:52:00,56.3,50.5,29.80,SW,232,10.0,17.0,81,0.00,,OVC060,0.25,VWS V14.01,2013-09-28 22:52:00,
2013-09-28 17:57:00,56.2,50.1,29.80,WSW,244,13.0,23.0,80,0.00,,OVC060,0.25,VWS V14.01,2013-09-28 22:57:00,
2013-09-28 18:00:00,56.7,51.3,29.77,WSW,251,15.0,21.0,82,0.00,,,0.25,VWS V15.00,2013-09-28 23:00:00,
2013-09-28 18:02:00,56.2,49.8,29.80,SW,233,2.0,12.0,79,0.00,,OVC060,0.25,VWS V14.01,2013-09-28 23:02:00,
2013-09-28 18:07:00,56.0,50.3,29.80,SW,234,10.0,15.0,81,0.00,,OVC060,0.25,VWS V14.01,2013-09-28 23:07:00,
2013-09-28 18:12:00,55.9,50.2,29.80,SW,227,10.0,15.0,81,0.00,,OVC060,0.25,VWS V14.01,2013-09-28 23:12:00,
2013-09-28 18:15:00,57.0,51.2,29.79,SW,232,17.0,20.0,81,0.00,,,0.25,VWS V15.00,2013-09-28 23:15:00,
2013-09-28 18:17:00,55.7,50.0,29.81,SW,230,7.0,12.0,81,0.00,,OVC060,0.25,VWS V14.01,2013-09-28 23:17:00,
2013-09-28 18:24:00,55.7,50.0,29.81,SW,226,9.0,13.0,81,0.00,,OVC060,0.25,VWS V14.01,2013-09-28 23:24:00,
2013-09-28 18:29:00,55.7,50.0,29.81,SW,229,3.0,14.0,81,0.00,,OVC060,0.25,VWS V14.01,2013-09-28 23:29:00,
2013-09-28 18:30:00,56.6,50.8,29.79,SW,233,8.0,19.0,81,0.00,,,0.25,VWS V15.00,2013-09-28 23:30:00,
2013-09-28 18:34:00,55.7,50.3,29.82,SW,230,6.0,10.0,82,0.00,,OVC060,0.25,VWS V14.01,2013-09-28 23:34:00,
2013-09-28 18:39:00,55.6,50.2,29.82,SW,225,4.0,14.0,82,0.00,,OVC060,0.25,VWS V14.01,2013-09-28 23:39:00,
2013-09-28 18:44:00,55.6,49.9,29.82,WSW,253,0.0,14.0,81,0.00,,OVC048,0.25,VWS V14.01,2013-09-28 23:44:00,
2013-09-28 18:45:00,56.3,50.2,29.80,SW,232,8.0,18.0,80,0.00,,,0.25,VWS V15.00,2013-09-28 23:45:00,
2013-09-28 18:49:00,55.6,49.5,29.82,WSW,245,7.0,12.0,80,0.00,,OVC048,0.25,VWS V14.01,2013-09-28 23:49:00,
2013-09-28 18:54:00,55.6,49.5,29.82,WSW,240,15.0,15.0,80,0.00,,OVC050,0.25,VWS V14.01,2013-09-28 23:54:00,
2013-09-28 18:59:00,55.6,49.2,29.82,WSW,246,15.0,15.0,79,0.00,,OVC050,0.25,VWS V14.01,2013-09-28 23:59:00,
2013-09-28 19:00:00,56.2,50.1,29.80,SW,228,12.0,23.0,80,0.00,,,0.25,VWS V15.00,2013-09-29 00:00:00,
2013-09-28 19:04:00,55.6,49.2,29.83,WSW,247,11.0,13.0,79,0.00,,OVC050,0.25,VWS V14.01,2013-09-29 00:04:00,
2013-09-28 19:09:00,55.6,49.2,29.83,SW,234,7.0,13.0,79,0.00,,OVC050,0.25,VWS V14.01,2013-09-29 00:09:00,
2013-09-28 19:15:00,55.3,48.9,29.83,WSW,239,10.0,13.0,79,0.00,,OVC046,0.25,VWS V14.01,2013-09-29 00:15:00,
2013-09-28 19:20:00,55.1,49.0,29.84,WSW,243,6.0,12.0,80,0.00,,OVC046,0.25,VWS V14.01,2013-09-29 00:20:00,
2013-09-28 19:25:00,55.0,49.0,29.84,SW,234,11.0,12.0,80,0.00,,OVC046,0.25,VWS V14.01,2013-09-29 00:25:00,
2013-09-28 19:30:00,54.7,48.7,29.84,SW,236,9.0,15.0,80,0.00,,OVC046,0.25,VWS V14.01,2013-09-29 00:30:00,
2013-09-28 19:35:00,54.4,48.4,29.84,SW,234,11.0,13.0,80,0.00,,OVC046,0.25,VWS V14.01,2013-09-29 00:35:00,
2013-09-28 19:40:00,54.2,48.2,29.84,SW,236,6.0,14.0,80,0.00,,OVC120,0.25,VWS V14.01,2013-09-29 00:40:00,
2013-09-28 19:45:00,54.1,48.1,29.84,WSW,239,8.0,14.0,80,0.00,,OVC120,0.25,VWS V14.01,2013-09-29 00:45:00,
2013-09-28 19:50:00,53.8,47.8,29.85,WSW,240,10.0,15.0,80,0.00,,BKN120,0.25,VWS V14.01,2013-09-29 00:50:00,
2013-09-28 19:55:00,53.6,47.9,29.85,WSW,241,9.0,15.0,81,0.00,,BKN120,0.25,VWS V14.01,2013-09-29 00:55:00,
2013-09-28 20:00:00,53.5,47.8,29.85,SW,235,5.0,15.0,81,0.00,,BKN120,0.25,VWS V14.01,2013-09-29 01:00:00,
2013-09-28 20:05:00,53.2,47.9,29.86,WSW,238,9.0,11.0,82,0.00,,BKN120,0.25,VWS V14.01,2013-09-29 01:05:00,
2013-09-28 20:10:00,53.1,47.8,29.86,WSW,243,8.0,11.0,82,0.00,,BKN120,0.25,VWS V14.01,2013-09-29 01:10:00,
2013-09-28 20:15:00,52.8,47.5,29.86,WSW,240,5.0,13.0,82,0.00,,BKN120,0.25,VWS V14.01,2013-09-29 01:15:00,
2013-09-28 20:20:00,52.6,47.3,29.87,WSW,245,9.0,13.0,82,0.00,,BKN120,0.25,VWS V14.01,2013-09-29 01:20:00,
2013-09-28 20:25:00,52.5,47.2,29.87,WSW,251,13.0,14.0,82,0.00,,BKN120,0.25,VWS V14.01,2013-09-29 01:25:00,
2013-09-28 20:30:00,52.5,47.2,29.87,SW,234,11.0,14.0,82,0.00,,BKN120,0.25,VWS V14.01,2013-09-29 01:30:00,
2013-09-28 20:35:00,52.5,46.8,29.88,WSW,246,9.0,12.0,81,0.00,,BKN120,0.25,VWS V14.01,2013-09-29 01:35:00,
2013-09-28 20:40:00,52.3,46.7,29.88,WSW,247,11.0,13.0,81,0.00,,BKN110,0.25,VWS V14.01,2013-09-29 01:40:00,
2013-09-28 20:45:00,52.2,46.5,29.88,WSW,248,7.0,13.0,81,0.00,,BKN110,0.25,VWS V14.01,2013-09-29 01:45:00,
2013-09-28 20:50:00,52.0,46.4,29.89,WSW,255,5.0,12.0,81,0.00,,BKN110,0.25,VWS V14.01,2013-09-29 01:50:00,
2013-09-28 20:55:00,52.0,46.0,29.89,WSW,255,2.0,14.0,80,0.00,,BKN110,0.25,VWS V14.01,2013-09-29 01:55:00,
2013-09-28 21:00:00,51.9,45.9,29.89,WSW,253,6.0,14.0,80,0.00,,BKN110,0.25,VWS V14.01,2013-09-29 02:00:00,
2013-09-28 21:05:00,51.7,46.1,29.89,WSW,253,8.0,9.0,81,0.00,,BKN110,0.25,VWS V14.01,2013-09-29 02:05:00,
2013-09-28 21:11:00,51.4,46.1,29.89,WSW,253,6.0,10.0,82,0.00,,BKN110,0.25,VWS V14.01,2013-09-29 02:11:00,
2013-09-28 21:15:00,52.8,47.5,29.87,WSW,239,7.0,13.0,82,0.00,,,0.25,VWS V15.00,2013-09-29 02:15:00,
2013-09-28 21:16:00,51.1,45.8,29.89,WSW,252,4.0,10.0,82,0.00,,BKN110,0.25,VWS V14.01,2013-09-29 02:16:00,
2013-09-28 21:21:00,51.0,45.7,29.89,WSW,252,4.0,8.0,82,0.00,,BKN110,0.25,VWS V14.01,2013-09-29 02:21:00,
2013-09-28 21:26:00,50.7,45.7,29.89,WSW,252,5.0,8.0,83,0.00,,BKN110,0.25,VWS V14.01,2013-09-29 02:26:00,
2013-09-28 21:30:00,52.5,47.2,29.88,WSW,246,7.0,14.0,82,0.00,,,0.25,VWS V15.00,2013-09-29 02:30:00,
2013-09-28 21:31:00,50.4,45.8,29.90,WSW,252,4.0,8.0,84,0.00,,BKN110,0.25,VWS V14.01,2013-09-29 02:31:00,
2013-09-28 21:36:00,50.1,45.5,29.90,WSW,252,4.0,6.0,84,0.00,,BKN110,0.25,VWS V14.01,2013-09-29 02:36:00,
2013-09-28 21:41:00,49.8,45.5,29.90,WSW,252,3.0,6.0,85,0.00,,BKN110,0.25,VWS V14.01,2013-09-29 02:41:00,
2013-09-28 21:45:00,52.2,46.5,29.89,WSW,257,9.0,13.0,81,0.00,,,0.25,VWS V15.00,2013-09-29 02:45:00,
2013-09-28 21:46:00,49.5,45.5,29.90,WSW,252,5.0,6.0,86,0.00,,BKN110,0.25,VWS V14.01,2013-09-29 02:46:00,
2013-09-28 21:51:00,49.4,45.4,29.90,WSW,252,4.0,5.0,86,0.00,,BKN110,0.25,VWS V14.01,2013-09-29 02:51:00,
2013-09-28 21:56:00,49.1,45.4,29.90,WSW,252,4.0,5.0,87,0.00,,BKN110,0.25,VWS V14.01,2013-09-29 02:56:00,
2013-09-28 22:00:00,51.9,46.3,29.89,WSW,254,6.0,14.0,81,0.00,,,0.25,VWS V15.00,2013-09-29 03:00:00,
2013-09-28 22:01:00,48.9,45.2,29.90,WSW,252,5.0,5.0,87,0.00,,BKN110,0.25,VWS V14.01,2013-09-29 03:01:00,
2013-09-28 22:07:00,48.6,45.5,29.90,WSW,252,5.0,5.0,89,0.00,,BKN110,0.25,VWS V14.01,2013-09-29 03:07:00,
2013-09-28 22:13:00,48.5,45.4,29.90,WSW,252,5.0,6.0,89,0.00,,BKN110,0.25,VWS V14.01,2013-09-29 03:13:00,
2013-09-28 22:15:00,51.1,45.8,29.89,WSW,252,4.0,10.0,82,0.00,,,0.25,VWS V15.00,2013-09-29 03:15:00,
2013-09-28 22:18:00,48.3,45.2,29.90,WSW,252,5.0,6.0,89,0.00,,BKN110,0.25,VWS V14.01,2013-09-29 03:18:00,
2013-09-28 22:23:00,48.2,45.1,29.90,WSW,252,5.0,6.0,89,0.00,,BKN110,0.25,VWS V14.01,2013-09-29 03:23:00,
2013-09-28 22:28:00,47.9,45.1,29.90,WSW,252,6.0,6.0,90,0.00,,BKN110,0.25,VWS V14.01,2013-09-29 03:28:00,
2013-09-28 22:30:00,50.4,45.8,29.90,WSW,252,3.0,8.0,84,0.00,,,0.25,VWS V15.00,2013-09-29 03:30:00,
2013-09-28 22:34:00,48.0,45.2,29.90,WSW,252,6.0,6.0,90,0.00,,BKN110,0.25,VWS V14.01,2013-09-29 03:34:00,
2013-09-28 22:39:00,48.0,44.9,29.90,WSW,251,5.0,7.0,89,0.00,,BKN110,0.25,VWS V14.01,2013-09-29 03:39:00,
2013-09-28 22:44:00,47.7,44.9,29.90,WSW,250,6.0,7.0,90,0.00,,BKN110,0.25,VWS V14.01,2013-09-29 03:44:00,
2013-09-28 22:45:00,49.5,45.5,29.90,WSW,252,4.0,6.0,86,0.00,,,0.25,VWS V15.00,2013-09-29 03:45:00,
2013-09-28 22:51:00,47.7,44.6,29.89,SW,234,6.0,7.0,89,0.00,,BKN110,0.25,VWS V14.01,2013-09-29 03:51:00,
2013-09-28 22:57:00,47.7,44.6,29.89,SW,233,5.0,7.0,89,0.00,,BKN110,0.25,VWS V14.01,2013-09-29 03:57:00,
2013-09-28 23:00:00,48.9,45.2,29.90,WSW,252,4.0,5.0,87,0.00,,,0.25,VWS V15.00,2013-09-29 04:00:00,
2013-09-28 23:01:00,47.7,44.6,29.90,SW,232,6.0,7.0,89,0.00,,BKN110,0.25,VWS V14.01,2013-09-29 04:01:00,
2013-09-28 23:02:00,47.7,44.6,29.90,SW,229,6.0,7.0,89,0.00,,BKN110,0.25,VWS V14.01,2013-09-29 04:02:00,
2013-09-28 23:03:00,47.7,44.6,29.90,SW,227,9.0,9.0,89,0.00,,BKN110,0.25,VWS V14.01,2013-09-29 04:03:00,
2013-09-28 23:04:00,47.6,44.5,29.90,SW,227,6.0,9.0,89,0.00,,BKN110,0.25,VWS V14.01,2013-09-29 04:04:00,
2013-09-28 23:07:00,47.6,44.5,29.90,SW,221,7.0,9.0,89,0.00,,BKN110,0.25,VWS V14.01,2013-09-29 04:07:00,
2013-09-28 23:12:00,47.4,44.3,29.90,SSW,210,6.0,9.0,89,0.00,,BKN110,0.25,VWS V14.01,2013-09-29 04:12:00,
2013-09-28 23:15:00,48.5,45.4,29.90,WSW,252,6.0,7.0,89,0.00,,,0.25,VWS V15.00,2013-09-29 04:15:00,
2013-09-28 23:17:00,47.4,44.3,29.90,SSW,203,8.0,9.0,89,0.00,,BKN110,0.25,VWS V14.01,2013-09-29 04:17:00,
2013-09-28 23:22:00,47.4,44.3,29.90,SSW,202,7.0,9.0,89,0.00,,BKN110,0.25,VWS V14.01,2013-09-29 04:22:00,
2013-09-28 23:27:00,47.4,44.3,29.90,SSW,201,7.0,9.0,89,0.00,,BKN110,0.25,VWS V14.01,2013-09-29 04:27:00,
2013-09-28 23:30:00,48.0,45.2,29.90,WSW,252,6.0,6.0,90,0.00,,,0.25,VWS V15.00,2013-09-29 04:30:00,
2013-09-28 23:32:00,47.4,44.6,29.90,SSW,200,7.0,9.0,90,0.00,,BKN110,0.25,VWS V14.01,2013-09-29 04:32:00,
2013-09-28 23:37:00,47.4,44.6,29.90,SSW,197,9.0,9.0,90,0.00,,BKN110,0.25,VWS V14.01,2013-09-29 04:37:00,
2013-09-28 23:42:00,47.4,44.6,29.90,SSW,195,9.0,10.0,90,0.00,,SCT110,0.25,VWS V14.01,2013-09-29 04:42:00,
2013-09-28 23:45:00,47.7,44.9,29.89,SW,236,6.0,9.0,90,0.00,,,0.25,VWS V15.00,2013-09-29 04:45:00,
2013-09-28 23:47:00,47.4,44.6,29.91,SSW,194,7.0,9.0,90,0.00,,SCT110,0.25,VWS V14.01,2013-09-29 04:47:00,
2013-09-28 23:52:00,47.3,44.5,29.91,SSW,194,6.0,9.0,90,0.00,,BKN110,0.25,VWS V14.01,2013-09-29 04:52:00,
2013-09-28 23:58:00,47.3,44.5,29.91,SSW,194,6.0,9.0,90,0.00,,BKN110,0.25,VWS V14.01,2013-09-29 04:58:00,